Location: Boiro
(42.6475°N, 8.8834°W)
Time: 01:14:37
(UTC+02:00)

COSMOS 2251 DEB - Pass Details

Date: 09 July 2022
Orbit: 738 x 847 km, 74.1° (Epoch: 10 August)

Event Time Altitude Azimuth Distance (km) Brightness Sun altitude
Rises 04:26:24 0° 354° (N) 3,212 ? -20.6°
Reaches altitude 10° 04:29:50 10° 17° (NNE) 2,269 ? -20.3°
Maximum altitude 04:32:45 15° 53° (NE) 1,925 ? -20.0°
Drops below altitude 10° 04:35:39 10° 88° (E) 2,247 ? -19.8°
Sets 04:39:01 0° 111° (ESE) 3,165 ? -19.5°
